Time,TemperatureF,DewpointF,PressureIn,WindDirection,WindDirectionDegrees,WindSpeedMPH,WindSpeedGustMPH,Humidity,HourlyPrecipIn,Conditions,Clouds,dailyrainin,SoftwareType,DateUTC
2013-02-07 00:02:00,20.0,12.0,-100.00,East,95,8.0,9.0,70,-99.99,,,-99.99,,2013-02-07 05:02:00,
2013-02-07 00:12:00,21.0,13.0,-100.00,East,100,7.0,10.0,70,-99.99,,,-99.99,,2013-02-07 05:12:00,
2013-02-07 00:21:00,21.0,14.0,-100.00,ESE,105,4.0,7.0,72,-99.99,,,-99.99,,2013-02-07 05:21:00,
2013-02-07 00:32:00,22.0,15.0,-100.00,ESE,105,3.0,4.0,73,-99.99,,,-99.99,,2013-02-07 05:32:00,
2013-02-07 00:42:00,22.0,15.0,-100.00,ESE,105,2.0,4.0,73,-99.99,,,-99.99,,2013-02-07 05:42:00,
2013-02-07 00:52:00,23.0,15.0,-100.00,ESE,115,3.0,6.0,69,-99.99,,,-99.99,,2013-02-07 05:52:00,
2013-02-07 01:02:00,23.0,15.0,-100.00,East,95,0.0,3.0,72,-99.99,,,-99.99,,2013-02-07 06:02:00,
2013-02-07 01:11:00,23.0,15.0,-100.00,East,90,0.0,2.0,71,-99.99,,,-99.99,,2013-02-07 06:11:00,
2013-02-07 01:22:00,23.0,15.0,-100.00,ESE,105,0.0,2.0,70,-99.99,,,-99.99,,2013-02-07 06:22:00,
2013-02-07 01:32:00,23.0,15.0,-100.00,ESE,105,0.0,0.0,70,-99.99,,,-99.99,,2013-02-07 06:32:00,
2013-02-07 01:43:00,23.0,15.0,-100.00,ESE,105,0.0,0.0,70,-99.99,,,-99.99,,2013-02-07 06:43:00,
2013-02-07 01:52:00,23.0,15.0,-100.00,East,100,0.0,2.0,72,-99.99,,,-99.99,,2013-02-07 06:52:00,
2013-02-07 02:02:00,23.0,15.0,-100.00,East,95,3.0,4.0,73,-99.99,,,-99.99,,2013-02-07 07:02:00,
2013-02-07 02:11:00,22.0,15.0,-100.00,East,90,4.0,4.0,71,-99.99,,,-99.99,,2013-02-07 07:11:00,
2013-02-07 02:22:00,22.0,15.0,-100.00,East,80,4.0,4.0,76,-99.99,,,-99.99,,2013-02-07 07:22:00,
2013-02-07 02:32:00,22.0,15.0,-100.00,NE,50,3.0,4.0,73,-99.99,,,-99.99,,2013-02-07 07:32:00,
2013-02-07 02:42:00,22.0,15.0,-100.00,NE,40,2.0,3.0,75,-99.99,,,-99.99,,2013-02-07 07:42:00,
2013-02-07 02:52:00,22.0,16.0,-100.00,NNE,30,2.0,3.0,76,-99.99,,,-99.99,,2013-02-07 07:52:00,
2013-02-07 03:02:00,23.0,16.0,-100.00,NE,55,0.0,2.0,75,-99.99,,,-99.99,,2013-02-07 08:02:00,
2013-02-07 03:11:00,23.0,16.0,-100.00,ENE,65,2.0,2.0,74,-99.99,,,-99.99,,2013-02-07 08:11:00,
2013-02-07 03:21:00,23.0,16.0,-100.00,ENE,60,1.0,3.0,73,-99.99,,,-99.99,,2013-02-07 08:21:00,
2013-02-07 03:32:00,23.0,16.0,-100.00,NE,55,0.0,0.0,73,-99.99,,,-99.99,,2013-02-07 08:32:00,
2013-02-07 03:42:00,23.0,16.0,-100.00,ENE,60,0.0,0.0,73,-99.99,,,-99.99,,2013-02-07 08:42:00,
2013-02-07 03:52:00,24.0,16.0,-100.00,ENE,75,2.0,4.0,72,-99.99,,,-99.99,,2013-02-07 08:52:00,
2013-02-07 04:02:00,23.0,16.0,-100.00,East,80,7.0,7.0,74,-99.99,,,-99.99,,2013-02-07 09:02:00,
2013-02-07 04:11:00,23.0,17.0,-100.00,East,85,6.0,7.0,77,-99.99,,,-99.99,,2013-02-07 09:11:00,
2013-02-07 04:21:00,24.0,17.0,-100.00,ENE,75,5.0,6.0,74,-99.99,,,-99.99,,2013-02-07 09:21:00,
2013-02-07 04:32:00,24.0,16.0,-100.00,ENE,75,7.0,9.0,72,-99.99,,,-99.99,,2013-02-07 09:32:00,
2013-02-07 04:42:00,24.0,17.0,-100.00,East,80,7.0,10.0,73,-99.99,,,-99.99,,2013-02-07 09:42:00,
2013-02-07 04:52:00,24.0,16.0,-100.00,ENE,70,3.0,8.0,70,-99.99,,,-99.99,,2013-02-07 09:52:00,
2013-02-07 05:02:00,24.0,17.0,-100.00,NE,50,6.0,8.0,71,-99.99,,,-99.99,,2013-02-07 10:02:00,
2013-02-07 05:11:00,25.0,17.0,-100.00,NNE,30,5.0,7.0,71,-99.99,,,-99.99,,2013-02-07 10:11:00,
2013-02-07 05:22:00,25.0,17.0,-100.00,NNE,20,3.0,6.0,72,-99.99,,,-99.99,,2013-02-07 10:22:00,
2013-02-07 05:32:00,25.0,17.0,-100.00,NE,35,4.0,6.0,72,-99.99,,,-99.99,,2013-02-07 10:32:00,
2013-02-07 05:42:00,25.0,17.0,-100.00,ENE,75,4.0,4.0,72,-99.99,,,-99.99,,2013-02-07 10:42:00,
2013-02-07 05:51:00,25.0,18.0,-100.00,ENE,75,4.0,6.0,74,-99.99,,,-99.99,,2013-02-07 10:51:00,
2013-02-07 06:01:00,25.0,18.0,-100.00,ENE,75,4.0,6.0,74,-99.99,,,-99.99,,2013-02-07 11:01:00,
2013-02-07 06:11:00,24.0,18.0,-100.00,ENE,75,5.0,6.0,77,-99.99,,,-99.99,,2013-02-07 11:11:00,
2013-02-07 06:23:00,24.0,18.0,-100.00,ENE,75,5.0,6.0,77,-99.99,,,-99.99,,2013-02-07 11:23:00,
2013-02-07 06:32:00,24.0,19.0,-100.00,East,90,8.0,9.0,80,-99.99,,,-99.99,,2013-02-07 11:32:00,
2013-02-07 06:44:00,24.0,19.0,-100.00,East,90,8.0,9.0,80,-99.99,,,-99.99,,2013-02-07 11:44:00,
2013-02-07 06:52:00,25.0,19.0,-100.00,East,80,4.0,7.0,77,-99.99,,,-99.99,,2013-02-07 11:52:00,
2013-02-07 07:02:00,25.0,19.0,-100.00,ENE,60,4.0,4.0,77,-99.99,,,-99.99,,2013-02-07 12:02:00,
2013-02-07 07:11:00,25.0,19.0,-100.00,ENE,75,4.0,6.0,77,-99.99,,,-99.99,,2013-02-07 12:11:00,
2013-02-07 07:22:00,25.0,19.0,-100.00,East,85,6.0,7.0,79,-99.99,,,-99.99,,2013-02-07 12:22:00,
2013-02-07 07:33:00,25.0,19.0,-100.00,East,80,6.0,6.0,80,-99.99,,,-99.99,,2013-02-07 12:33:00,
2013-02-07 07:42:00,24.0,19.0,-100.00,East,90,6.0,8.0,80,-99.99,,,-99.99,,2013-02-07 12:42:00,
2013-02-07 07:52:00,24.0,19.0,-100.00,East,85,7.0,10.0,81,-99.99,,,-99.99,,2013-02-07 12:52:00,
2013-02-07 08:03:00,25.0,19.0,-100.00,ENE,65,4.0,7.0,78,-99.99,,,-99.99,,2013-02-07 13:03:00,
2013-02-07 08:12:00,24.0,19.0,-100.00,ENE,75,5.0,7.0,79,-99.99,,,-99.99,,2013-02-07 13:12:00,
2013-02-07 08:22:00,24.0,18.0,-100.00,East,80,3.0,4.0,78,-99.99,,,-99.99,,2013-02-07 13:22:00,
2013-02-07 08:32:00,24.0,19.0,-100.00,East,85,6.0,6.0,81,-99.99,,,-99.99,,2013-02-07 13:32:00,
2013-02-07 08:42:00,24.0,19.0,-100.00,East,85,6.0,6.0,81,-99.99,,,-99.99,,2013-02-07 13:42:00,
2013-02-07 08:52:00,26.0,20.0,-100.00,East,100,4.0,6.0,78,-99.99,,,-99.99,,2013-02-07 13:52:00,
2013-02-07 09:01:00,26.0,20.0,-100.00,East,100,4.0,6.0,78,-99.99,,,-99.99,,2013-02-07 14:01:00,
2013-02-07 09:11:00,26.0,20.0,-100.00,East,85,4.0,6.0,77,-99.99,,,-99.99,,2013-02-07 14:11:00,
2013-02-07 09:22:00,26.0,20.0,-100.00,East,85,4.0,5.0,77,-99.99,,,-99.99,,2013-02-07 14:22:00,
2013-02-07 09:32:00,26.0,20.0,-100.00,East,80,5.0,6.0,78,-99.99,,,-99.99,,2013-02-07 14:32:00,
2013-02-07 09:42:00,27.0,21.0,-100.00,East,80,5.0,6.0,78,-99.99,,,-99.99,,2013-02-07 14:42:00,
2013-02-07 09:52:00,28.0,22.0,-100.00,East,90,6.0,6.0,76,-99.99,,,-99.99,,2013-02-07 14:52:00,
2013-02-07 10:02:00,29.0,23.0,-100.00,East,85,7.0,8.0,76,-99.99,,,-99.99,,2013-02-07 15:02:00,
2013-02-07 10:11:00,31.0,23.0,-100.00,East,85,10.0,12.0,73,-99.99,,,-99.99,,2013-02-07 15:11:00,
2013-02-07 10:22:00,30.0,24.0,-100.00,East,90,9.0,13.0,75,-99.99,,,-99.99,,2013-02-07 15:22:00,
2013-02-07 10:32:00,31.0,24.0,-100.00,East,90,9.0,11.0,74,-99.99,,,-99.99,,2013-02-07 15:32:00,
2013-02-07 10:42:00,32.0,24.0,-100.00,East,95,9.0,12.0,73,-99.99,,,-99.99,,2013-02-07 15:42:00,
2013-02-07 10:52:00,32.0,24.0,-100.00,East,95,10.0,12.0,73,-99.99,,,-99.99,,2013-02-07 15:52:00,
2013-02-07 11:01:00,33.0,25.0,-100.00,East,95,8.0,12.0,73,-99.99,,,-99.99,,2013-02-07 16:01:00,
2013-02-07 11:11:00,34.0,25.0,-100.00,ESE,110,6.0,9.0,71,-99.99,,,-99.99,,2013-02-07 16:11:00,
2013-02-07 11:21:00,35.0,26.0,-100.00,ESE,110,5.0,10.0,70,-99.99,,,-99.99,,2013-02-07 16:21:00,
2013-02-07 11:32:00,35.0,26.0,-100.00,ESE,110,5.0,10.0,70,-99.99,,,-99.99,,2013-02-07 16:32:00,
2013-02-07 11:42:00,35.0,26.0,-100.00,ESE,115,7.0,11.0,69,-99.99,,,-99.99,,2013-02-07 16:42:00,
2013-02-07 11:52:00,36.0,27.0,-100.00,ESE,115,6.0,9.0,67,-99.99,,,-99.99,,2013-02-07 16:52:00,
2013-02-07 12:01:00,36.0,27.0,-100.00,SE,125,7.0,7.0,69,-99.99,,,-99.99,,2013-02-07 17:01:00,
2013-02-07 12:11:00,36.0,27.0,-100.00,SE,125,9.0,11.0,68,-99.99,,,-99.99,,2013-02-07 17:11:00,
2013-02-07 12:21:00,38.0,28.0,-100.00,SE,125,9.0,12.0,65,-99.99,,,-99.99,,2013-02-07 17:21:00,
2013-02-07 12:32:00,38.0,28.0,-100.00,SE,125,9.0,11.0,66,-99.99,,,-99.99,,2013-02-07 17:32:00,
2013-02-07 12:43:00,39.0,28.0,-100.00,ESE,115,10.0,13.0,63,-99.99,,,-99.99,,2013-02-07 17:43:00,
2013-02-07 12:52:00,39.0,28.0,-100.00,ESE,120,6.0,13.0,65,-99.99,,,-99.99,,2013-02-07 17:52:00,
2013-02-07 13:02:00,39.0,28.0,-100.00,ESE,115,9.0,12.0,63,-99.99,,,-99.99,,2013-02-07 18:02:00,
2013-02-07 13:11:00,39.0,28.0,-100.00,ESE,115,8.0,15.0,63,-99.99,,,-99.99,,2013-02-07 18:11:00,
2013-02-07 13:23:00,40.0,29.0,-100.00,East,85,6.0,11.0,64,-99.99,,,-99.99,,2013-02-07 18:23:00,
2013-02-07 13:32:00,39.0,29.0,-100.00,East,90,6.0,8.0,64,-99.99,,,-99.99,,2013-02-07 18:32:00,
2013-02-07 13:42:00,40.0,29.0,-100.00,East,95,6.0,7.0,64,-99.99,,,-99.99,,2013-02-07 18:42:00,
2013-02-07 13:52:00,40.0,29.0,-100.00,East,95,6.0,8.0,63,-99.99,,,-99.99,,2013-02-07 18:52:00,
2013-02-07 14:01:00,40.0,30.0,-100.00,East,95,4.0,8.0,67,-99.99,,,-99.99,,2013-02-07 19:01:00,
2013-02-07 14:11:00,41.0,30.0,-100.00,ESE,110,4.0,7.0,62,-99.99,,,-99.99,,2013-02-07 19:11:00,
2013-02-07 14:22:00,42.0,29.0,-100.00,ESE,115,7.0,10.0,60,-99.99,,,-99.99,,2013-02-07 19:22:00,
2013-02-07 14:32:00,42.0,29.0,-100.00,ESE,115,7.0,11.0,59,-99.99,,,-99.99,,2013-02-07 19:32:00,
2013-02-07 14:42:00,42.0,29.0,-100.00,ESE,115,7.0,12.0,58,-99.99,,,-99.99,,2013-02-07 19:42:00,
2013-02-07 14:52:00,42.0,29.0,-100.00,ESE,115,7.0,11.0,59,-99.99,,,-99.99,,2013-02-07 19:52:00,
2013-02-07 15:01:00,42.0,29.0,-100.00,ESE,105,7.0,11.0,58,-99.99,,,-99.99,,2013-02-07 20:01:00,
2013-02-07 15:11:00,42.0,29.0,-100.00,ESE,110,7.0,11.0,57,-99.99,,,-99.99,,2013-02-07 20:11:00,
2013-02-07 15:22:00,42.0,30.0,-100.00,East,85,3.0,9.0,63,-99.99,,,-99.99,,2013-02-07 20:22:00,
2013-02-07 15:32:00,42.0,30.0,-100.00,East,80,5.0,7.0,62,-99.99,,,-99.99,,2013-02-07 20:32:00,
2013-02-07 15:42:00,42.0,30.0,-100.00,East,90,4.0,6.0,62,-99.99,,,-99.99,,2013-02-07 20:42:00,
2013-02-07 15:52:00,42.0,31.0,-100.00,East,85,3.0,5.0,63,-99.99,,,-99.99,,2013-02-07 20:52:00,
2013-02-07 16:02:00,42.0,30.0,-100.00,East,85,6.0,7.0,61,-99.99,,,-99.99,,2013-02-07 21:02:00,
2013-02-07 16:11:00,41.0,31.0,-100.00,East,85,6.0,7.0,66,-99.99,,,-99.99,,2013-02-07 21:11:00,
2013-02-07 16:21:00,42.0,30.0,-100.00,East,90,6.0,7.0,63,-99.99,,,-99.99,,2013-02-07 21:21:00,
2013-02-07 16:32:00,42.0,31.0,-100.00,East,90,5.0,7.0,64,-99.99,,,-99.99,,2013-02-07 21:32:00,
2013-02-07 16:42:00,41.0,30.0,-100.00,NNE,20,7.0,9.0,64,-99.99,,,-99.99,,2013-02-07 21:42:00,
2013-02-07 16:52:00,41.0,30.0,-100.00,East,95,7.0,8.0,64,-99.99,,,-99.99,,2013-02-07 21:52:00,
2013-02-07 17:02:00,41.0,30.0,-100.00,East,95,6.0,8.0,66,-99.99,,,-99.99,,2013-02-07 22:02:00,
2013-02-07 17:11:00,40.0,30.0,-100.00,East,90,6.0,8.0,65,-99.99,,,-99.99,,2013-02-07 22:11:00,
2013-02-07 17:21:00,40.0,30.0,-100.00,East,95,6.0,7.0,66,-99.99,,,-99.99,,2013-02-07 22:21:00,
2013-02-07 17:32:00,40.0,30.0,-100.00,East,90,4.0,6.0,65,-99.99,,,-99.99,,2013-02-07 22:32:00,
2013-02-07 17:42:00,40.0,30.0,-100.00,East,95,6.0,6.0,66,-99.99,,,-99.99,,2013-02-07 22:42:00,
2013-02-07 17:51:00,40.0,30.0,-100.00,East,85,3.0,6.0,66,-99.99,,,-99.99,,2013-02-07 22:51:00,
2013-02-07 18:02:00,40.0,29.0,-100.00,East,90,2.0,4.0,65,-99.99,,,-99.99,,2013-02-07 23:02:00,
2013-02-07 18:11:00,40.0,29.0,-100.00,East,85,2.0,3.0,66,-99.99,,,-99.99,,2013-02-07 23:11:00,
2013-02-07 18:22:00,40.0,29.0,-100.00,ENE,75,2.0,3.0,65,-99.99,,,-99.99,,2013-02-07 23:22:00,
2013-02-07 18:32:00,39.0,29.0,-100.00,ENE,75,1.0,4.0,66,-99.99,,,-99.99,,2013-02-07 23:32:00,
2013-02-07 18:42:00,38.0,29.0,-100.00,ENE,75,0.0,1.0,69,-99.99,,,-99.99,,2013-02-07 23:42:00,
2013-02-07 18:52:00,38.0,29.0,-100.00,ENE,70,2.0,2.0,69,-99.99,,,-99.99,,2013-02-07 23:52:00,
2013-02-07 19:02:00,39.0,29.0,-100.00,ENE,60,3.0,4.0,66,-99.99,,,-99.99,,2013-02-08 00:02:00,
2013-02-07 19:11:00,38.0,29.0,-100.00,ENE,70,2.0,4.0,69,-99.99,,,-99.99,,2013-02-08 00:11:00,
2013-02-07 19:21:00,36.0,29.0,-100.00,ENE,75,3.0,6.0,74,-99.99,,,-99.99,,2013-02-08 00:21:00,
2013-02-07 19:32:00,36.0,29.0,-100.00,ENE,75,2.0,4.0,74,-99.99,,,-99.99,,2013-02-08 00:32:00,
2013-02-07 19:42:00,37.0,29.0,-100.00,East,80,4.0,5.0,73,-99.99,,,-99.99,,2013-02-08 00:42:00,
2013-02-07 19:52:00,35.0,29.0,-100.00,East,80,6.0,6.0,78,-99.99,,,-99.99,,2013-02-08 00:52:00,
2013-02-07 20:01:00,36.0,29.0,-100.00,East,80,6.0,6.0,77,-99.99,,,-99.99,,2013-02-08 01:01:00,
2013-02-07 20:11:00,38.0,29.0,-100.00,ENE,75,4.0,6.0,69,-99.99,,,-99.99,,2013-02-08 01:11:00,
2013-02-07 20:21:00,38.0,28.0,-100.00,East,80,6.0,6.0,68,-99.99,,,-99.99,,2013-02-08 01:21:00,
2013-02-07 20:32:00,36.0,28.0,-100.00,East,80,7.0,7.0,73,-99.99,,,-99.99,,2013-02-08 01:32:00,
2013-02-07 20:41:00,35.0,28.0,-100.00,East,85,8.0,9.0,76,-99.99,,,-99.99,,2013-02-08 01:41:00,
2013-02-07 20:51:00,36.0,29.0,-100.00,East,95,9.0,11.0,75,-99.99,,,-99.99,,2013-02-08 01:51:00,
2013-02-07 21:01:00,37.0,28.0,-100.00,East,100,7.0,12.0,71,-99.99,,,-99.99,,2013-02-08 02:01:00,
2013-02-07 21:11:00,35.0,28.0,-100.00,East,95,9.0,10.0,74,-99.99,,,-99.99,,2013-02-08 02:11:00,
2013-02-07 21:21:00,35.0,28.0,-100.00,East,95,9.0,11.0,76,-99.99,,,-99.99,,2013-02-08 02:21:00,
2013-02-07 21:32:00,38.0,29.0,-100.00,East,100,7.0,10.0,70,-99.99,,,-99.99,,2013-02-08 02:32:00,
2013-02-07 21:42:00,38.0,29.0,-100.00,ESE,110,7.0,11.0,67,-99.99,,,-99.99,,2013-02-08 02:42:00,
2013-02-07 21:52:00,39.0,29.0,-100.00,ESE,110,10.0,13.0,66,-99.99,,,-99.99,,2013-02-08 02:52:00,
2013-02-07 22:02:00,38.0,29.0,-100.00,ESE,115,10.0,12.0,68,-99.99,,,-99.99,,2013-02-08 03:02:00,
2013-02-07 22:12:00,38.0,29.0,-100.00,ESE,115,10.0,14.0,69,-99.99,,,-99.99,,2013-02-08 03:12:00,
2013-02-07 22:22:00,39.0,29.0,-100.00,SE,125,12.0,15.0,68,-99.99,,,-99.99,,2013-02-08 03:22:00,
2013-02-07 22:32:00,39.0,30.0,-100.00,ESE,120,14.0,16.0,69,-99.99,,,-99.99,,2013-02-08 03:32:00,
2013-02-07 22:42:00,39.0,30.0,-100.00,ESE,115,12.0,17.0,69,-99.99,,,-99.99,,2013-02-08 03:42:00,
2013-02-07 22:52:00,39.0,30.0,-100.00,ESE,120,12.0,17.0,70,-99.99,,,-99.99,,2013-02-08 03:52:00,
2013-02-07 23:02:00,39.0,30.0,-100.00,ESE,120,12.0,16.0,71,-99.99,,,-99.99,,2013-02-08 04:02:00,
2013-02-07 23:11:00,39.0,31.0,-100.00,ESE,120,13.0,16.0,71,-99.99,,,-99.99,,2013-02-08 04:11:00,
2013-02-07 23:21:00,40.0,31.0,-100.00,ESE,120,13.0,16.0,70,-99.99,,,-99.99,,2013-02-08 04:21:00,
2013-02-07 23:32:00,40.0,31.0,-100.00,ESE,120,12.0,16.0,71,-99.99,,,-99.99,,2013-02-08 04:32:00,
2013-02-07 23:42:00,40.0,31.0,-100.00,ESE,120,12.0,17.0,71,-99.99,,,-99.99,,2013-02-08 04:42:00,
2013-02-07 23:51:00,40.0,31.0,-100.00,ESE,120,12.0,15.0,71,-99.99,,,-99.99,,2013-02-08 04:51:00,